TimeMST,TemperatureF,Dew PointF,Humidity,Sea Level PressureIn,VisibilityMPH,Wind Direction,Wind SpeedMPH,Gust SpeedMPH,PrecipitationIn,Events,Conditions,WindDirDegrees,DateUTC
12:53 AM,10.0,8.1,92,30.40,5.0,Calm,Calm,-,N/A,,Clear,0,2013-01-22 07:53:00
1:23 AM,6.8,5.0,92,30.22,1.2,Calm,Calm,-,N/A,,Clear,0,2013-01-22 08:23:00
1:25 AM,6.8,5.0,92,30.22,0.8,Calm,Calm,-,N/A,,Clear,0,2013-01-22 08:25:00
1:38 AM,6.8,3.2,85,30.22,0.8,Calm,Calm,-,N/A,,Mist,0,2013-01-22 08:38:00
1:51 AM,6.8,5.0,92,30.22,0.2,Calm,Calm,-,N/A,Fog,Light Freezing Fog,0,2013-01-22 08:51:00
1:53 AM,7.0,5.0,92,30.39,0.2,Calm,Calm,-,N/A,Fog,Light Freezing Fog,0,2013-01-22 08:53:00
2:25 AM,6.8,3.2,85,30.23,1.0,Calm,Calm,-,N/A,,Mist,0,2013-01-22 09:25:00
2:27 AM,6.8,3.2,85,30.23,3.0,Calm,Calm,-,N/A,,Partly Cloudy,0,2013-01-22 09:27:00
2:35 AM,3.2,-0.4,85,30.24,1.8,Calm,Calm,-,N/A,,Scattered Clouds,0,2013-01-22 09:35:00
2:38 AM,3.2,1.4,92,30.24,1.0,Calm,Calm,-,N/A,,Mist,0,2013-01-22 09:38:00
2:46 AM,5.0,3.2,92,30.24,0.5,Calm,Calm,-,N/A,Fog,Light Freezing Fog,0,2013-01-22 09:46:00
2:53 AM,3.0,1.0,91,30.41,1.0,Calm,Calm,-,N/A,,Mist,0,2013-01-22 09:53:00
2:55 AM,3.2,1.4,92,30.24,1.8,Calm,Calm,-,N/A,,Mostly Cloudy,0,2013-01-22 09:55:00
2:58 AM,3.2,1.4,92,30.24,3.0,Calm,Calm,-,N/A,,Overcast,0,2013-01-22 09:58:00
3:03 AM,3.2,1.4,92,30.24,1.5,Calm,Calm,-,N/A,,Overcast,0,2013-01-22 10:03:00
3:05 AM,5.0,1.4,85,30.24,0.8,Calm,Calm,-,N/A,,Mist,0,2013-01-22 10:05:00
3:16 AM,6.8,5.0,92,30.24,0.2,Calm,Calm,-,N/A,Fog,Light Freezing Fog,0,2013-01-22 10:16:00
3:37 AM,6.8,3.2,85,30.24,0.5,Calm,Calm,-,N/A,Fog,Light Freezing Fog,0,2013-01-22 10:37:00
3:53 AM,3.0,1.0,91,30.41,0.5,Calm,Calm,-,N/A,Fog,Light Freezing Fog,0,2013-01-22 10:53:00
4:04 AM,3.2,1.4,92,30.24,0.2,Calm,Calm,-,N/A,Fog,Light Freezing Fog,0,2013-01-22 11:04:00
4:19 AM,3.2,1.4,92,30.24,0.5,Calm,Calm,-,N/A,Fog,Light Freezing Fog,0,2013-01-22 11:19:00
4:27 AM,3.2,1.4,92,30.23,0.2,Calm,Calm,-,N/A,Fog,Light Freezing Fog,0,2013-01-22 11:27:00
4:53 AM,1.9,-0.0,91,30.41,0.2,Calm,Calm,-,N/A,Fog,Light Freezing Fog,0,2013-01-22 11:53:00
5:43 AM,3.2,-0.4,85,30.23,1.0,Calm,Calm,-,N/A,,Mist,0,2013-01-22 12:43:00
5:46 AM,3.2,-0.4,85,30.23,1.5,Calm,Calm,-,N/A,,Mostly Cloudy,0,2013-01-22 12:46:00
5:53 AM,3.0,1.0,91,30.41,2.0,Calm,Calm,-,N/A,,Scattered Clouds,0,2013-01-22 12:53:00
5:55 AM,1.4,-0.4,92,30.23,1.2,Calm,Calm,-,N/A,,Scattered Clouds,0,2013-01-22 12:55:00
5:58 AM,1.4,-0.4,92,30.23,0.8,Calm,Calm,-,N/A,,Mist,0,2013-01-22 12:58:00
6:53 AM,6.1,3.0,87,30.40,0.8,Calm,Calm,-,N/A,,Mist,0,2013-01-22 13:53:00
7:53 AM,6.1,3.0,87,30.42,0.5,Calm,Calm,-,0.00,Fog-Snow,Light Snow,0,2013-01-22 14:53:00
8:53 AM,9.0,7.0,92,30.43,0.5,Calm,Calm,-,0.00,Fog,Light Freezing Fog,0,2013-01-22 15:53:00
9:44 AM,6.8,6.8,100,30.26,0.2,Calm,Calm,-,N/A,Fog,Light Freezing Fog,0,2013-01-22 16:44:00
9:53 AM,8.1,7.0,95,30.46,0.2,Calm,Calm,-,N/A,Fog,Light Freezing Fog,0,2013-01-22 16:53:00
10:12 AM,10.4,8.6,92,30.27,1.0,Calm,Calm,-,N/A,,Overcast,0,2013-01-22 17:12:00
10:50 AM,10.4,10.4,100,30.26,2.0,Calm,Calm,-,N/A,,Scattered Clouds,0,2013-01-22 17:50:00
10:53 AM,10.9,10.9,100,30.44,2.5,Calm,Calm,-,N/A,,Scattered Clouds,0,2013-01-22 17:53:00
11:39 AM,15.8,12.2,86,30.25,5.0,Calm,Calm,-,N/A,,Clear,0,2013-01-22 18:39:00
11:53 AM,15.1,12.9,91,30.41,5.0,Calm,Calm,-,N/A,,Clear,0,2013-01-22 18:53:00
12:53 PM,16.0,14.0,92,30.40,4.0,Calm,Calm,-,N/A,,Clear,0,2013-01-22 19:53:00
1:53 PM,18.0,15.1,88,30.37,8.0,Calm,Calm,-,N/A,,Clear,0,2013-01-22 20:53:00
2:53 PM,19.0,15.1,85,30.36,4.0,Calm,Calm,-,N/A,,Clear,0,2013-01-22 21:53:00
3:53 PM,19.0,16.0,88,30.34,10.0,Calm,Calm,-,N/A,,Clear,0,2013-01-22 22:53:00
4:53 PM,19.0,15.1,85,30.32,10.0,Calm,Calm,-,N/A,,Clear,0,2013-01-22 23:53:00
5:53 PM,19.9,17.1,89,30.32,10.0,Calm,Calm,-,N/A,,Clear,0,2013-01-23 00:53:00
6:53 PM,18.0,14.0,84,30.31,9.0,Calm,Calm,-,N/A,,Clear,0,2013-01-23 01:53:00
7:53 PM,18.0,14.0,84,30.30,9.0,ESE,3.5,-,N/A,,Clear,120,2013-01-23 02:53:00
8:53 PM,18.0,16.0,92,30.30,6.0,Calm,Calm,-,N/A,,Clear,0,2013-01-23 03:53:00
9:53 PM,15.1,12.0,88,30.31,7.0,Calm,Calm,-,N/A,,Clear,0,2013-01-23 04:53:00
10:53 PM,15.1,12.0,88,30.33,7.0,NNW,3.5,-,N/A,,Clear,330,2013-01-23 05:53:00
11:53 PM,12.0,9.0,88,30.33,5.0,Calm,Calm,-,N/A,,Clear,0,2013-01-23 06:53:00